Date,TemperatureHighF,TemperatureAvgF,TemperatureLowF,DewpointHighF,DewpointAvgF,DewpointLowF,HumidityHigh,HumidityAvg,HumidityLow,PressureMaxIn,PressureMinIn,WindSpeedMaxMPH,WindSpeedAvgMPH,GustSpeedMaxMPH,PrecipitationSumIn
2013-1-1,63,42,32,50,36,24,99,85,26,30.20,30.10,11,2,11,0.01
2013-1-2,71,44,30,50,32,1,100,78,10,30.16,30.03,7,1,7,0.00
2013-1-3,65,42,29,53,37,16,99,89,22,30.18,30.08,8,1,8,0.00
2013-1-4,70,45,33,53,38,7,100,85,14,30.20,30.11,8,1,8,0.01
2013-1-5,76,50,39,57,49,39,100,99,29,30.22,29.77,11,1,11,0.34
2013-1-6,55,46,36,53,46,35,99,99,91,30.01,29.87,17,2,17,0.14
2013-1-7,60,44,33,56,43,33,100,97,79,30.07,29.96,10,1,10,0.00
2013-1-8,70,48,37,60,46,37,100,96,58,30.02,29.91,8,1,8,0.01
2013-1-9,58,47,37,58,47,37,100,99,93,29.95,29.81,17,2,17,0.00
2013-1-10,55,41,32,50,36,29,99,86,41,30.01,29.86,21,3,21,0.01
2013-1-11,58,41,29,46,37,29,99,89,45,30.07,29.94,14,2,14,0.01
2013-1-12,54,39,29,50,35,13,100,89,26,30.06,29.94,9,1,9,0.01
2013-1-13,55,36,25,44,24,-12,100,76,10,30.07,29.96,17,2,17,0.01
2013-1-14,58,36,24,35,20,-11,100,73,10,30.22,30.01,10,2,10,0.00
2013-1-15,58,38,26,43,26,-8,99,76,10,30.28,30.20,8,1,8,0.00
2013-1-16,65,42,28,44,30,1,100,77,11,30.23,30.04,8,1,8,0.00
2013-1-17,81,48,32,49,31,2,99,74,10,30.04,29.91,8,1,8,0.00
2013-1-18,79,49,35,48,33,2,100,74,10,30.00,29.91,8,1,8,0.00
2013-1-19,81,51,35,48,33,3,100,72,11,30.01,29.93,7,1,7,0.00
2013-1-20,81,50,33,44,28,-1,100,66,10,30.01,29.88,8,1,8,0.00
2013-1-21,82,50,34,43,29,1,100,65,10,29.96,29.85,8,1,8,0.00
2013-1-22,76,51,34,46,30,0,100,62,10,29.91,29.81,8,1,8,0.00
2013-1-23,62,53,47,55,47,38,99,82,59,29.89,29.77,7,1,7,0.01
2013-1-24,61,54,49,61,54,49,99,99,99,29.98,29.84,5,0,5,0.05
2013-1-25,75,58,50,69,57,49,100,97,72,29.99,29.82,10,1,10,0.00
2013-1-26,64,52,38,63,48,38,99,89,50,29.91,29.80,17,3,17,0.01
2013-1-27,38,33,32,38,33,32,99,99,99,29.94,29.89,2,0,2,0.00
2013-1-28,32,32,32,32,32,32,99,99,99,29.94,29.94,0,0,0,0.00
2013-1-29,32,32,32,32,32,32,99,99,99,29.94,29.94,0,0,0,0.00
2013-1-30,32,32,32,32,32,32,99,99,99,29.94,29.94,0,0,0,0.00
2013-1-31,93,67,48,93,45,23,76,44,10,29.72,29.61,11,3,11,0.00
2013-2-1,76,54,36,60,47,33,100,86,22,30.01,29.73,11,2,11,10.35
2013-2-2,64,48,41,60,48,41,100,99,82,30.05,29.97,8,1,8,0.00
2013-2-3,76,43,37,43,42,37,99,99,29,30.01,29.72,4,0,4,0.00
2013-2-4,76,46,34,60,45,34,99,98,23,29.95,29.80,10,2,10,10.37
2013-2-5,60,47,37,57,46,37,99,98,79,30.00,29.91,11,1,11,0.01
2013-2-6,68,45,34,55,43,34,100,93,47,30.05,29.96,10,1,10,0.00
2013-2-7,59,45,35,56,43,34,100,95,58,30.03,29.85,12,2,12,0.04
2013-2-8,60,44,33,50,40,29,100,89,34,29.85,29.78,9,2,14,0.06
2013-2-9,61,41,29,53,38,22,100,90,35,29.95,29.83,10,2,10,0.00
2013-2-10,59,42,29,55,39,26,100,91,35,29.96,29.85,9,2,9,0.01
2013-2-11,65,44,32,54,38,13,99,84,24,30.09,29.90,11,2,11,0.00
2013-2-12,63,45,34,56,41,34,100,90,45,30.20,30.09,11,2,11,0.01
2013-2-13,68,45,32,55,42,32,100,91,39,30.19,30.06,9,2,9,0.00
2013-2-14,78,51,35,60,42,26,100,81,19,30.08,29.96,8,1,8,0.00
2013-2-15,85,56,38,60,32,3,100,65,10,30.08,30.01,9,1,9,0.00
2013-2-16,83,56,42,57,36,2,100,71,10,30.05,29.88,8,2,8,0.00
2013-2-17,62,47,38,56,46,38,100,97,69,29.91,29.81,11,2,11,0.00
2013-2-18,53,46,36,52,45,36,99,96,80,29.90,29.82,11,2,11,0.01
2013-2-19,76,43,31,45,43,30,99,99,29,30.08,29.73,4,0,4,0.39
2013-2-20,68,43,29,50,35,2,100,83,11,30.20,29.96,11,2,11,0.01
2013-2-21,68,46,33,53,32,-3,99,75,10,30.30,30.18,11,2,11,0.00
2013-2-22,70,46,32,55,42,32,100,89,43,30.38,30.29,11,2,11,0.00
2013-2-23,67,51,40,54,34,-3,99,68,10,30.38,30.24,18,3,18,0.00
2013-2-24,68,48,34,41,23,-7,100,55,10,30.38,30.27,12,3,12,0.00
2013-2-25,72,46,32,52,37,8,100,79,12,30.40,30.27,11,2,11,0.00
2013-2-26,76,48,32,54,32,1,99,72,10,30.33,30.22,11,2,11,0.00
2013-2-27,77,49,32,55,38,1,100,78,10,30.49,30.32,12,2,12,0.00
2013-2-28,78,52,37,59,46,35,99,85,26,30.57,30.47,11,2,11,0.00
2013-3-1,84,57,42,65,48,28,100,80,19,30.54,30.31,10,2,10,0.00
2013-3-2,77,56,46,65,49,23,99,84,19,30.35,30.19,11,2,11,0.00
2013-3-3,61,52,49,60,52,49,99,99,90,30.24,30.17,11,2,11,0.00
2013-3-4,60,51,46,55,50,45,100,97,81,30.27,30.18,13,2,13,0.00
2013-3-5,57,49,42,52,47,42,100,93,70,30.22,30.05,16,4,16,0.12
2013-3-6,59,50,38,55,48,38,100,95,64,30.22,30.05,21,3,21,0.18
2013-3-7,60,47,36,54,43,31,100,89,37,30.13,29.97,14,2,14,0.15
2013-3-8,65,51,41,57,45,24,100,84,25,30.21,29.94,22,4,22,0.04
2013-3-9,74,52,37,58,41,2,99,80,10,30.42,30.21,18,2,18,0.00
2013-3-10,70,49,35,58,46,35,99,92,53,30.47,30.37,10,2,10,0.00
2013-3-11,71,51,36,59,41,2,99,80,10,30.37,30.22,12,2,12,0.00
2013-3-12,51,42,40,50,42,39,99,99,99,30.27,30.23,2,0,2,0.00
2013-3-13,81,55,42,66,49,30,99,87,16,30.26,30.18,8,2,8,0.00
2013-3-14,70,54,41,60,52,41,100,95,67,30.28,30.19,11,2,11,0.00
2013-3-15,78,55,41,61,47,7,100,83,14,30.24,30.15,12,2,12,0.00
2013-3-16,76,54,44,61,51,44,99,92,45,30.22,30.14,14,3,14,0.00
2013-3-17,76,52,38,58,44,10,100,83,12,30.26,30.14,11,2,11,0.00
2013-3-18,66,49,37,55,47,37,100,92,57,30.25,30.15,14,2,14,0.00
2013-3-19,71,53,42,58,46,24,100,84,24,30.28,30.17,12,2,12,0.07
2013-3-20,66,56,50,62,51,5,100,89,17,30.25,30.19,11,2,11,0.01
2013-3-21,72,55,42,56,48,31,100,81,27,30.24,30.09,12,3,12,0.00
2013-3-22,79,53,36,58,30,-5,100,64,10,30.20,30.11,13,2,13,0.00
2013-3-23,78,52,34,53,34,-2,100,69,10,30.24,30.14,11,2,11,0.00
2013-3-24,74,51,36,56,42,17,100,80,17,30.22,30.08,10,2,10,0.00
2013-3-25,69,51,40,56,45,21,99,87,24,30.15,30.06,13,3,13,0.00
2013-3-26,65,51,41,58,49,41,100,92,52,30.14,30.06,15,3,15,0.00
2013-3-27,67,53,42,64,52,42,100,95,66,30.15,30.07,14,3,14,0.00
2013-3-28,54,54,54,54,54,54,99,99,99,30.15,30.14,3,0,3,0.01
2013-3-29,76,54,32,54,54,32,99,99,99,30.14,29.65,4,0,4,0.61
2013-3-30,68,56,51,62,54,48,100,94,50,29.96,29.84,15,4,15,0.11
2013-3-31,69,57,50,64,55,49,99,96,61,29.94,29.86,15,3,15,0.05
2013-4-1,66,57,48,62,55,47,99,94,68,30.01,29.90,14,3,14,0.17
2013-4-2,74,56,43,60,52,43,100,89,41,30.04,29.92,11,2,11,0.00
2013-4-3,76,55,49,63,53,48,100,95,52,29.98,29.86,14,3,14,0.00
2013-4-4,62,54,50,62,54,50,99,99,99,29.98,29.88,11,2,11,0.13
2013-4-5,68,57,48,64,56,47,99,95,70,30.04,29.96,14,3,14,0.00
2013-4-6,66,56,47,65,55,47,100,98,86,30.06,29.97,14,3,15,0.00
2013-4-7,71,57,50,63,55,49,100,95,60,30.03,29.75,16,4,16,0.07
2013-4-8,72,56,43,52,31,-1,100,61,10,29.85,29.67,24,6,24,0.07
2013-4-9,82,60,40,50,23,-1,99,51,10,29.91,29.82,23,5,23,0.00
2013-4-10,90,62,44,59,40,6,100,67,10,30.01,29.86,10,3,10,0.00
2013-4-11,75,57,46,59,51,42,99,85,34,29.94,29.71,13,3,13,0.00
2013-4-12,72,54,43,56,49,43,100,86,39,29.79,29.69,11,2,11,0.00
2013-4-13,74,55,44,59,49,29,100,84,23,29.78,29.67,11,3,11,0.00
2013-4-14,78,54,38,57,40,8,100,74,11,29.80,29.69,16,3,16,0.00
2013-4-15,62,52,42,50,36,7,99,66,16,29.81,29.72,24,6,24,0.01
2013-4-16,73,50,33,48,25,-5,100,59,10,29.97,29.80,24,4,24,0.00
2013-4-17,77,58,41,42,13,-5,88,32,10,30.09,29.96,24,5,24,0.00
2013-4-18,72,53,37,52,38,1,100,69,11,30.12,30.03,13,3,13,0.00
2013-4-19,73,55,40,56,43,10,100,75,18,30.10,29.93,11,3,11,0.00
2013-4-20,87,58,42,59,42,9,100,72,10,29.95,29.81,11,2,11,0.00
2013-4-21,90,60,42,63,40,7,99,69,10,29.87,29.76,10,2,10,0.00
2013-4-22,51,49,47,50,48,47,99,99,99,29.81,29.77,0,0,0,0.00
2013-4-23,60,53,49,57,52,48,99,98,89,29.83,29.73,14,4,14,0.00
2013-4-24,63,53,48,56,51,47,99,93,70,29.83,29.70,14,3,14,0.00
2013-4-25,68,56,46,56,51,45,99,86,48,29.98,29.83,13,3,13,0.00
2013-4-26,72,54,41,57,50,40,99,87,42,30.08,29.98,10,2,10,0.00
2013-4-27,71,56,46,58,51,46,99,88,49,30.08,29.93,8,3,8,0.00
2013-4-28,74,56,48,58,52,48,100,88,42,29.93,29.75,9,2,9,0.00
2013-4-29,87,60,46,66,50,40,100,79,19,29.75,29.62,8,2,8,0.00
2013-4-30,82,58,46,60,50,31,100,80,20,29.70,29.62,11,2,11,0.01
2013-5-1,69,54,44,57,51,44,100,91,52,29.94,29.70,13,3,13,0.00
2013-5-2,87,62,46,65,43,9,100,67,10,29.99,29.92,12,2,12,0.00
2013-5-3,84,63,47,56,38,9,100,62,10,29.95,29.66,12,2,12,0.00
2013-5-4,62,53,45,60,53,44,100,99,89,29.66,29.52,21,4,21,0.00
2013-5-5,69,57,49,57,53,39,100,87,37,29.67,29.49,15,3,15,0.00
2013-5-6,67,58,49,59,54,48,100,87,62,29.82,29.66,16,3,16,0.00
2013-5-7,69,59,52,59,54,49,99,86,52,29.92,29.80,15,3,15,0.00
2013-5-8,67,56,52,58,54,51,99,93,61,30.00,29.90,14,3,14,0.00
2013-5-9,72,57,50,56,53,48,100,87,46,30.03,29.93,13,3,13,0.00
2013-5-10,73,57,46,59,52,46,99,87,50,30.04,29.94,12,3,12,0.00
2013-5-11,77,58,47,64,53,45,99,87,37,30.01,29.91,11,3,11,0.00
2013-5-12,84,62,47,63,51,27,100,77,16,29.98,29.86,12,2,12,0.00
2013-5-13,82,61,50,61,51,20,100,78,15,29.95,29.80,14,3,14,0.00
2013-5-14,69,57,50,58,54,49,100,89,55,29.91,29.82,14,3,14,0.00
2013-5-15,72,57,44,57,48,40,100,78,35,29.94,29.86,14,2,14,0.00
2013-5-16,70,56,48,61,54,47,100,94,62,29.91,29.82,14,2,14,0.01
2013-5-17,74,57,45,58,47,32,100,76,28,29.95,29.85,14,2,14,0.00
2013-5-18,77,57,46,56,47,32,100,76,23,30.01,29.93,13,2,13,0.00
2013-5-19,83,60,46,59,45,10,100,71,10,29.98,29.80,11,3,11,0.00
2013-5-20,84,62,45,61,44,7,100,65,10,29.86,29.75,11,3,11,0.00
2013-5-21,78,59,46,57,41,2,99,66,10,29.87,29.76,20,4,20,0.00
2013-5-22,71,54,39,50,26,-3,100,54,10,29.86,29.74,17,4,17,0.00
2013-5-23,66,52,37,48,37,19,100,66,20,29.87,29.80,14,3,14,0.00
2013-5-24,72,53,38,52,40,4,100,72,10,29.88,29.80,14,3,14,0.00
2013-5-25,70,54,40,52,44,36,100,77,35,29.94,29.85,14,3,14,0.00
2013-5-26,72,57,45,56,52,45,100,86,52,30.00,29.90,12,3,12,0.00
2013-5-27,68,57,46,62,54,45,100,91,67,30.00,29.87,11,2,11,0.00
2013-5-28,77,62,52,63,55,47,100,82,40,29.88,29.74,12,3,12,0.00
2013-5-29,79,61,48,58,49,23,99,73,17,29.83,29.72,14,3,14,0.00
2013-5-30,77,58,43,55,44,25,100,71,18,29.85,29.78,12,3,12,0.00
2013-5-31,84,60,43,59,44,24,100,68,16,29.86,29.74,11,3,11,0.00
2013-6-1,82,61,46,60,48,23,100,70,17,29.80,29.62,11,3,11,0.00
2013-6-2,66,56,47,58,52,46,100,89,59,29.65,29.59,14,3,14,0.00
2013-6-3,63,56,50,56,52,49,100,88,62,29.75,29.61,20,5,20,0.00
2013-6-4,65,55,46,57,52,46,100,90,67,29.84,29.72,17,4,17,0.00
2013-6-5,61,57,50,57,53,49,99,87,76,29.86,29.82,11,4,11,0.00
2013-6-6,61,61,61,53,53,53,76,76,76,29.85,29.85,7,7,11,0.00
2013-6-7,76,61,52,53,53,41,99,77,29,30.09,29.85,7,7,11,0.00
2013-6-8,61,56,50,60,56,50,100,99,90,30.00,29.90,16,6,16,0.00
2013-6-9,62,59,56,61,58,55,100,96,86,30.05,29.96,17,7,17,0.01
2013-6-10,67,62,56,57,53,48,100,74,52,30.10,30.00,20,4,20,0.00
2013-6-11,72,60,53,58,54,49,100,82,47,30.11,30.03,14,3,14,0.00
2013-6-12,78,60,47,60,50,39,100,76,28,30.16,30.05,12,3,12,0.00
2013-6-13,83,60,45,54,44,10,100,68,10,30.23,30.11,11,3,11,0.00
2013-6-14,84,61,45,58,45,9,100,69,10,30.13,29.94,12,3,12,0.00
2013-6-15,62,55,48,55,52,47,100,90,68,30.16,29.99,13,3,13,0.00
2013-6-16,77,60,51,57,52,38,99,79,31,30.23,30.15,11,4,11,0.00
2013-6-17,84,63,47,60,48,28,99,69,18,30.23,30.12,12,3,12,0.00
2013-6-18,77,61,51,58,44,11,100,65,12,30.18,30.09,26,5,26,0.00
2013-6-19,80,62,44,56,37,12,100,54,12,30.18,30.09,14,4,14,0.00
2013-6-20,84,60,44,56,42,10,100,64,10,30.15,30.05,14,3,14,0.00
2013-6-21,80,62,45,59,46,27,100,65,19,30.12,30.03,14,4,14,0.00
2013-6-22,79,60,45,58,49,33,100,74,22,30.08,29.97,14,3,14,0.00
2013-6-23,64,58,53,61,58,52,100,98,78,30.05,29.96,11,2,11,0.01
2013-6-24,60,59,57,60,59,57,99,99,99,30.07,29.93,8,2,8,0.05
2013-6-25,69,62,58,69,61,58,99,99,99,30.15,30.06,9,2,9,0.02
2013-6-26,84,68,60,71,62,54,100,84,38,30.17,30.08,12,3,12,0.00
2013-6-27,93,70,56,71,53,17,100,70,10,30.18,30.11,10,3,10,0.00
2013-6-28,90,68,56,68,55,31,100,71,17,30.15,30.02,12,3,12,0.00
2013-6-29,89,68,54,65,53,30,100,69,17,30.07,29.93,15,4,15,0.00
2013-6-30,83,65,52,65,55,45,100,76,32,30.00,29.89,12,4,12,0.00
2013-7-1,78,64,53,64,56,52,99,79,41,30.03,29.94,14,3,14,0.00
2013-7-2,74,60,56,64,58,56,99,94,54,30.10,29.98,15,2,15,0.00
2013-7-3,73,63,57,67,59,55,100,90,56,30.07,29.91,11,4,11,0.00
2013-7-4,69,62,55,65,60,55,100,94,72,29.95,29.88,11,4,11,0.00
2013-7-5,69,61,51,61,56,51,100,84,58,29.97,29.90,13,4,13,0.00
2013-7-6,62,58,54,59,56,54,100,94,76,29.99,29.93,14,4,14,0.01
2013-7-7,63,58,54,58,55,53,100,93,73,30.02,29.94,16,4,16,0.00
2013-7-8,65,59,55,58,55,52,100,89,67,30.12,30.01,14,4,14,0.00
2013-7-9,72,60,52,61,55,51,99,87,51,30.16,30.08,11,4,11,0.00
2013-7-10,64,57,54,61,56,54,100,97,79,30.14,30.07,13,3,14,0.00
2013-7-11,64,58,54,60,55,53,100,92,73,30.10,30.05,14,4,14,0.00
2013-7-12,66,58,53,58,55,52,100,91,64,30.10,30.03,14,4,14,0.00
2013-7-13,66,57,52,59,55,52,100,91,67,30.12,30.05,14,4,14,0.00
2013-7-14,68,58,53,59,55,52,100,92,61,30.15,30.05,14,4,14,0.00
2013-7-15,62,55,53,57,54,52,100,97,71,30.08,30.04,14,3,14,0.01
2013-7-18,62,59,56,56,54,53,97,86,75,30.11,30.05,6,5,14,0.01
2013-7-19,69,56,53,56,53,52,100,91,58,30.10,29.98,8,2,8,0.00
2013-7-20,61,56,53,60,55,53,100,97,86,30.02,29.95,11,3,11,0.00
2013-7-21,66,58,53,60,55,52,100,90,67,30.05,29.93,13,4,13,0.00
2013-7-22,69,61,56,63,59,56,100,92,71,30.10,30.02,12,3,12,0.00
2013-7-23,68,61,57,63,58,55,100,89,66,30.15,30.08,12,4,12,0.00
2013-7-24,76,56,56,56,56,41,99,99,29,30.11,29.91,4,1,4,0.00
2013-7-25,62,57,55,61,57,55,100,98,90,30.01,29.91,13,4,13,0.00
2013-7-26,62,58,55,60,57,55,100,98,91,30.09,29.99,12,3,12,0.00
2013-7-27,62,57,55,61,57,55,100,98,85,30.01,29.86,14,4,14,0.01
2013-7-28,61,57,54,59,56,54,100,98,89,29.89,29.83,14,3,14,0.01
2013-7-29,64,60,56,57,55,53,100,85,70,30.01,29.85,17,5,17,0.00
2013-7-30,65,60,56,55,54,51,95,82,63,30.08,30.00,19,5,19,0.00
2013-7-31,70,60,52,56,53,51,100,81,54,30.08,29.98,15,4,15,0.00
2013-8-1,80,63,49,57,50,39,100,68,28,30.06,29.92,11,3,11,0.00
2013-8-2,74,58,46,59,52,46,100,84,44,29.97,29.88,14,3,14,0.00
2013-8-3,76,56,53,56,55,41,100,98,29,29.98,29.91,8,3,8,0.00
2013-8-4,62,56,53,58,55,53,100,94,76,29.99,29.94,12,3,12,0.01
2013-8-5,66,58,53,59,55,52,100,90,64,29.99,29.91,14,4,15,0.00
2013-8-6,62,57,54,58,56,54,100,96,80,30.02,29.93,14,4,14,0.00
2013-8-7,57,57,56,57,56,56,99,99,99,30.03,30.01,4,1,4,0.00
2013-8-8,65,60,56,60,56,53,99,90,67,30.00,29.91,12,4,12,0.01
2013-8-9,66,60,56,59,57,53,100,90,64,29.95,29.88,11,4,11,0.00
2013-8-10,69,61,58,61,58,55,99,89,61,30.00,29.94,13,4,13,0.00
2013-8-11,73,61,57,60,57,54,99,88,51,29.98,29.91,8,3,8,0.00
2013-8-12,66,59,55,60,57,55,99,92,67,29.97,29.91,10,3,10,0.00
2013-8-13,70,60,53,60,55,52,99,84,58,29.95,29.87,11,3,11,0.00
2013-8-14,82,63,49,61,53,34,99,75,23,29.95,29.83,12,4,12,0.00
2013-8-15,90,70,52,67,54,34,100,66,18,29.91,29.83,11,4,11,0.00
2013-8-16,88,68,54,66,56,44,100,73,27,29.94,29.86,12,3,12,0.00
2013-8-17,80,63,56,62,57,50,100,83,39,29.96,29.83,11,2,11,0.00
2013-8-18,68,60,55,63,58,55,100,91,65,29.87,29.76,11,3,11,0.00
2013-8-19,67,60,55,61,57,55,100,92,69,29.90,29.79,15,4,15,0.00
2013-8-20,65,59,55,60,57,55,99,92,72,29.89,29.82,13,4,13,0.00
2013-8-21,67,60,56,57,55,50,100,84,58,29.91,29.83,14,4,14,0.00
2013-8-22,71,61,51,60,54,50,100,80,54,29.94,29.83,15,3,15,0.00
2013-8-23,80,62,55,59,55,46,100,81,35,29.89,29.75,11,3,11,0.00
2013-8-24,85,64,51,62,54,42,99,76,25,29.87,29.77,11,3,11,0.00
2013-8-25,73,63,55,65,58,55,100,87,58,29.91,29.84,15,3,15,0.00
2013-8-26,81,65,56,62,56,46,100,77,34,29.96,29.82,13,3,13,0.00
2013-8-27,84,64,51,62,52,35,100,71,22,29.87,29.74,14,3,14,0.00
2013-8-28,82,63,50,66,55,43,100,80,29,29.91,29.81,13,3,13,0.00
2013-8-29,85,67,58,68,59,50,99,80,33,30.00,29.90,14,3,14,0.00
2013-8-30,94,68,54,70,54,19,100,69,10,29.99,29.83,13,3,13,0.00
2013-8-31,87,66,60,58,52,21,91,71,13,29.99,29.89,11,1,11,12.30
2013-9-1,87,67,57,63,54,15,100,72,12,29.96,29.88,13,3,13,0.00
2013-9-2,81,68,62,60,58,50,89,72,39,29.98,29.88,12,2,12,0.00
2013-9-3,83,70,56,68,49,19,100,62,13,30.02,29.91,12,4,12,0.00
2013-9-4,86,69,52,63,48,22,100,59,13,30.06,29.93,11,4,11,0.00
2013-9-5,86,68,50,64,49,32,100,62,19,30.05,29.93,11,4,11,0.00
2013-9-6,92,72,50,65,40,12,100,50,10,30.03,29.82,11,4,11,0.00
2013-9-7,74,64,52,59,52,44,99,70,39,29.91,29.85,11,3,11,0.00
2013-9-8,66,60,57,61,58,55,100,93,71,29.91,29.81,13,4,13,0.00
2013-9-9,65,60,55,62,58,55,100,92,73,29.84,29.77,11,4,11,0.00
2013-9-10,64,60,56,62,59,56,100,96,85,29.93,29.80,11,4,11,0.01
2013-9-11,68,59,54,61,56,53,100,92,63,30.03,29.95,10,1,10,0.00
2013-9-12,74,62,52,62,58,52,100,86,54,30.00,29.90,12,3,12,0.00
2013-9-13,78,62,54,63,56,50,100,83,41,29.94,29.78,11,2,11,0.00
2013-9-14,79,63,54,62,54,46,99,77,34,29.86,29.74,12,3,12,0.00
2013-9-15,85,62,49,60,52,40,100,76,24,29.89,29.80,11,2,11,0.00
2013-9-16,75,67,51,64,54,51,100,69,48,29.92,29.86,10,4,10,0.00
2013-9-17,86,72,55,53,52,30,91,53,17,29.95,29.86,5,4,10,0.00
2013-9-18,80,63,47,60,47,30,100,65,21,29.97,29.85,13,3,13,0.00
2013-9-19,90,62,46,56,40,8,100,63,10,29.92,29.78,11,2,11,0.00
2013-9-20,67,58,47,62,55,46,100,89,63,29.94,29.83,10,2,10,0.00
2013-9-21,64,60,52,64,60,51,99,99,99,29.98,29.89,14,3,14,0.12
2013-9-22,75,58,47,61,53,44,100,85,36,30.06,29.97,10,2,10,0.00
2013-9-23,85,64,48,66,47,25,99,66,15,30.06,29.95,13,2,13,0.00
2013-9-24,79,66,0,66,48,40,100,61,29,30.05,29.93,9,4,9,0.00
2013-9-29,68,62,58,61,59,57,98,89,67,29.85,29.80,4,0,6,0.00
2013-9-30,80,63,51,66,58,50,98,83,43,29.85,29.68,5,0,6,0.00
2013-10-1,76,62,51,59,54,45,98,79,37,29.80,29.68,5,0,6,0.00
2013-10-2,82,59,46,57,49,45,98,75,29,29.80,29.68,4,0,6,0.00
2013-10-3,80,57,43,59,39,27,98,60,20,29.83,29.68,10,1,13,0.00
2013-10-4,89,62,42,43,36,27,88,45,16,29.85,29.71,6,0,9,0.00
2013-10-5,88,62,0,36,29,0,49,31,13,29.94,29.83,5,0,8,0.00
2013-10-6,84,61,45,37,28,23,49,32,16,29.85,29.77,7,0,8,0.00
2013-10-7,72,58,43,50,36,23,97,48,22,29.77,29.65,6,1,8,0.00
2013-10-8,60,50,40,52,47,41,98,89,63,29.68,29.50,6,1,8,0.00
2013-10-9,63,53,43,50,44,39,95,74,43,29.56,29.41,7,1,8,0.00
2013-10-10,60,50,42,50,46,41,98,87,65,29.80,29.56,6,1,8,0.00
2013-10-11,63,54,47,52,49,46,98,83,60,29.85,29.74,7,1,8,0.00
2013-10-12,65,52,46,54,49,45,98,90,58,29.80,29.68,6,1,8,0.00
2013-10-13,68,53,44,55,49,43,98,88,51,29.83,29.71,6,1,8,0.00
2013-10-14,83,60,43,59,44,37,98,63,21,29.85,29.71,7,1,10,0.00
2013-10-15,89,64,45,45,38,32,76,43,18,29.80,29.65,6,0,8,0.00
2013-10-16,85,62,47,41,35,28,56,40,19,29.94,29.74,7,0,10,0.19
2013-10-17,77,52,45,51,39,28,88,64,19,29.96,29.83,8,1,8,0.00
2013-10-18,80,56,41,52,40,21,100,66,16,29.94,29.85,12,2,12,0.00
2013-10-19,73,52,39,54,46,-11,100,83,30,29.96,29.89,11,2,11,0.00
2013-10-20,67,52,44,54,49,43,100,91,59,29.94,29.80,14,2,14,0.00
2013-10-21,63,51,46,54,49,45,100,94,69,29.90,29.82,11,2,11,0.00
2013-10-22,63,51,46,53,50,45,100,96,66,29.91,29.84,11,2,11,0.00
2013-10-23,58,51,47,54,50,47,100,98,84,29.88,29.82,9,2,9,0.00
2013-10-24,56,51,49,51,50,-12,99,95,83,29.99,29.86,7,1,7,0.00
2013-10-25,68,49,40,53,47,40,100,92,55,30.06,29.96,9,1,9,0.00
2013-10-26,64,51,41,56,48,40,100,92,68,30.03,29.91,10,2,10,0.00
2013-10-27,63,52,47,52,49,44,100,91,68,29.94,29.64,20,3,20,0.00
2013-10-28,64,56,51,53,47,39,100,76,44,29.77,29.59,21,4,21,0.00
2013-10-29,61,53,43,54,51,43,100,93,63,29.95,29.76,12,2,12,0.43
2013-10-30,68,50,40,55,45,40,100,85,48,30.04,29.93,10,1,10,0.00
2013-10-31,72,53,40,53,45,40,100,79,40,30.06,29.93,11,1,11,0.00
2013-11-1,80,56,41,51,42,30,100,71,21,30.01,29.89,11,1,11,0.00
2013-11-2,70,51,39,54,45,39,100,82,38,29.91,29.80,11,2,11,0.00
2013-11-3,71,51,39,53,36,10,100,68,13,29.93,29.78,11,2,11,0.00
2013-11-4,71,50,34,42,32,7,97,60,12,29.94,29.79,11,2,11,0.00
2013-11-5,73,51,37,46,36,20,100,65,18,30.11,29.93,10,1,10,0.00
2013-11-6,80,56,40,41,31,7,86,50,10,30.13,30.03,9,1,9,0.00
2013-11-7,74,54,44,51,39,26,100,62,25,30.05,29.94,8,1,8,0.00
2013-11-8,79,53,39,53,44,37,100,80,27,29.97,29.82,8,1,8,0.00
2013-11-9,72,52,41,58,48,34,100,88,31,29.95,29.85,16,2,16,0.00
2013-11-10,62,52,43,54,49,-16,100,91,67,30.02,29.92,14,2,14,0.00
2013-11-11,71,54,42,53,48,38,100,84,35,30.06,29.96,8,1,8,0.00
2013-11-12,76,58,45,54,48,41,100,74,35,30.14,30.02,8,1,8,0.00
2013-11-13,73,54,43,54,47,42,100,83,38,30.13,29.98,8,2,8,0.00
2013-11-14,62,49,42,54,48,42,100,96,73,30.01,29.80,11,2,11,0.00
2013-11-15,62,48,40,55,45,39,100,89,54,29.80,29.61,9,1,9,0.01
2013-11-16,64,48,39,51,44,38,100,87,51,29.84,29.69,11,1,11,0.00
2013-11-17,60,49,42,51,46,42,100,91,70,30.00,29.83,8,1,9,0.00
2013-11-18,59,49,41,50,46,41,100,90,65,30.05,29.98,10,1,10,0.00
2013-11-19,63,53,42,54,50,42,100,91,68,30.02,29.86,9,1,9,0.26
2013-11-20,59,56,50,58,55,49,100,98,95,29.87,29.74,5,1,5,0.28
2013-11-21,64,51,38,54,46,31,100,88,37,29.84,29.76,13,1,13,0.00
2013-11-22,62,43,34,38,34,26,100,79,30,29.91,29.80,7,2,7,0.00
2013-11-23,65,47,38,52,41,34,100,82,36,30.01,29.85,14,1,14,0.00
2013-11-24,70,47,35,50,40,34,100,83,34,30.14,30.00,9,1,9,0.00
2013-11-25,71,48,36,44,40,35,100,79,30,30.20,30.11,6,1,6,0.00
2013-11-26,72,49,40,45,42,39,100,81,33,30.13,29.91,2,0,2,0.00
2013-11-27,66,50,41,47,44,37,100,82,40,29.91,29.72,11,1,11,0.00
2013-11-28,68,51,43,49,43,37,100,79,41,29.97,29.73,10,1,10,0.00
2013-11-29,62,47,43,53,45,-10,100,95,12,30.11,29.96,4,0,4,0.00
2013-11-30,71,48,36,52,44,35,100,87,37,30.15,30.06,9,1,9,0.00
2013-12-1,74,51,38,56,43,38,100,79,35,30.21,30.08,8,1,8,0.00
2013-12-2,70,50,38,53,45,38,100,87,43,30.12,29.87,10,1,10,0.00
2013-12-3,58,47,32,52,38,29,100,75,39,29.88,29.72,21,3,21,0.00
2013-12-4,54,37,27,31,27,18,100,72,29,29.96,29.82,8,1,8,0.00
2013-12-5,51,34,23,34,24,16,93,72,28,30.07,29.95,11,1,11,0.00
2013-12-6,55,41,24,51,34,22,100,79,48,30.10,29.84,18,3,18,0.14
2013-12-7,53,42,27,51,32,19,100,74,31,30.13,29.79,27,5,27,0.15
2013-12-8,51,35,25,36,25,20,99,73,31,30.19,30.06,8,1,8,0.00
2013-12-9,60,36,23,27,19,6,86,60,16,30.27,30.18,13,2,13,0.00
2013-12-10,66,40,25,31,21,2,83,57,12,30.27,30.05,11,1,11,0.00
2013-12-11,67,43,29,32,25,2,82,59,11,30.09,30.02,11,1,11,0.00
2013-12-12,67,42,30,37,30,19,100,70,22,30.14,30.05,8,1,8,0.00
2013-12-13,59,42,31,47,37,30,100,88,54,30.22,30.11,9,1,9,0.00
2013-12-14,68,45,32,44,36,28,100,75,30,30.26,30.15,8,1,8,0.00
2013-12-15,76,49,33,37,30,9,88,59,14,30.22,30.07,7,1,7,0.00
2013-12-16,75,54,40,36,29,11,71,47,12,30.08,29.96,3,1,3,0.00
2013-12-17,81,56,42,41,32,10,71,49,11,30.02,29.88,11,1,11,0.00
2013-12-18,55,50,44,51,46,40,100,88,66,29.91,29.68,10,2,10,0.00
2013-12-19,61,47,34,46,36,26,100,73,32,29.81,29.62,11,2,11,0.00
2013-12-20,62,42,30,36,26,6,85,61,17,29.89,29.80,9,1,9,0.00
2013-12-21,64,44,32,42,33,25,100,70,35,29.97,29.84,9,1,9,0.00
2013-12-22,64,46,35,52,42,34,100,90,46,30.18,29.96,8,1,8,0.00
2013-12-23,68,47,36,53,41,35,100,84,41,30.26,30.17,9,1,9,0.00
2013-12-24,73,50,36,45,39,33,100,74,28,30.20,30.05,8,1,8,0.00
2013-12-25,82,48,36,40,35,16,97,71,13,30.13,29.91,8,0,8,0.00
2013-12-26,85,53,37,39,31,8,89,57,10,29.93,29.82,12,1,12,0.00
2013-12-27,75,51,36,39,30,10,80,52,12,29.91,29.80,4,0,5,0.00
2013-12-28,73,47,34,45,36,31,100,71,29,29.83,29.71,8,1,8,0.00
2013-12-29,77,48,34,36,26,3,84,55,10,29.88,29.78,9,1,9,1.51
2013-12-30,45,37,34,31,28,24,76,70,55,29.96,29.87,2,0,2,0.08
2013-12-31,66,45,32,42,34,25,100,70,29,29.98,29.83,51,1,51,0.00
2014-1-1,70,48,33,49,36,22,100,70,31,29.92,29.80,4,0,4,0.00
2014-1-2,71,50,37,39,35,21,82,60,20,29.85,29.74,8,1,8,0.00